Vertical_Velocity
0 0 1 1 1 1 2 1 0 -0 1 1 0 0 -1 0 -0 -0 -0 0 -1 -1 0 -0 -1 -0 -1 -0 -1 -1 -1 -1 -1 -1 -0 -0 -1 -2 -2 -2 -1 -2 -2 -1 -2 -1 1
-0 1 0 0 1 1 1 0 0 1 1 0 -1 0 0 0 0 1 0 -0 0 -0 -1 -1 -1 -1 -0 1 -0 -1 -1 -1 -1 0 -1 -1 -1 -1 -1 -1 -1 -1 -1 -1 0 -2 -3
0 -0 -1 0 1 1 1 1 1 1 2 2 1 1 0 0 0 -1 -1 -0 -1 -0 -2 -1 -1 0 1 -1 -0 -1 -0 0 0 -0 -1 -2 -2 -2 -0 -1 -2 -2 -1 -3 -2 -1 -0
-0 0 0 -0 -0 1 2 2 2 2 2 1 0 0 0 0 1 1 0 -1 -0 -1 -1 -0 -1 -0 -0 -0 -1 -0 -0 -0 0 -0 -1 -1 -1 -2 -1 -1 -1 -2 -2 -3 2 -1 -1
-1 -1 -0 1 1 0 0 1 1 1 1 0 -1 -0 0 0 0 -0 0 0 -0 -1 -1 -0 -0 0 -0 -0 0 -1 -1 -0 -0 -1 -0 -1 -1 -2 -1 -1 -2 -2 -3 -1 -4 -2 -3
-0 0 -1 -1 -2 0 0 1 1 -0 0 0 1 1 1 0 0 0 -0 -0 -0 -0 -0 -1 -1 -1 -1 -0 -1 -1 0 -0 -0 -1 1 -2 -1 -1 -1 -2 -2 -1 -1 1 -1 -5 -3
-0 -1 -1 0 0 1 1 1 0 -2 -2 -3 -2 -1 -0 0 -0 -1 -1 -1 -1 -2 -1 -0 -2 -0 -0 -0 -0 -1 -0 -0 -0 0 -0 0 -1 -2 -1 0 -1 0 0 -4 4 1 -6
1 -0 -1 -1 -1 -1 -1 -1 -2 -1 -0 0 -1 -1 -1 -1 -1 -1 -1 -1 -0 -1 -1 1 -1 -1 -1 0 0 -2 0 -0 1 -1 -1 -3 -1 -1 -0 0 0 1 -2 3 -4 -1 -1
-1 -2 -2 -2 -1 -0 -1 -0 0 0 -0 -2 -2 -2 -1 -0 0 -1 -1 -1 -2 -2 -2 -0 -1 -1 -1 0 -0 1 0 -0 1 -0 -1 -2 -2 0 0 1 -1 4 -2 -1 1 -6 -4
-1 -2 -1 -2 -3 -2 -1 -0 -1 -1 -2 -2 -0 1 -0 -0 1 -1 -1 -2 -2 -3 -2 -1 -1 -1 -1 1 -0 -0 -1 -2 -0 -1 -1 -3 -1 -0 -0 2 2 -5 -2 0 2 1 -3
-0 -1 -2 -3 -2 -2 -2 -2 -2 -2 -2 -2 -3 -2 0 -0 -1 -2 -1 -1 -1 -1 -5 -1 -1 -1 0 -0 0 2 -1 -1 -0 1 2 -1 -1 -1 -2 0 1 -2 -0 2 2 1 0
-2 -2 -1 -0 -0 -1 -2 -2 -3 -3 -2 -2 -0 0 -1 -0 -2 -1 -1 -1 -2 -3 -6 -0 0 0 -1 1 -0 -3 0 0 0 -1 -1 0 -1 -2 0 0 0 1 -2 -1 2 1 -0
1 0 -1 -1 -0 -0 -1 -1 -1 -1 -2 -3 -1 -2 -2 -1 -0 0 0 0 -3 -2 0 0 -0 -0 -1 -3 -6 -1 -1 2 0 -1 -3 -1 -4 -0 -2 0 -0 -0 0 -4 -4 -1 -8
0 -0 -1 -1 -1 -2 -3 -2 -2 -2 -1 -0 -1 -1 -1 -2 -2 -3 -2 -3 -2 2 -1 1 0 -0 -1 -1 -2 0 -2 -7 -1 2 -0 -1 -7 -1 -1 -0 2 3 1 -2 -1 -2 -5
0 -1 -1 -3 -3 -2 -2 -2 -3 -3 -4 -0 -2 -0 2 -2 -1 -1 0 -2 -4 0 0 0 -2 -4 -1 0 -1 -1 -3 -6 -3 -1 -2 2 -1 1 -2 1 4 -2 -3 1 2 2 5
-0 -2 -1 -1 -1 -1 -2 -2 -2 -2 -3 -3 -1 0 2 -0 0 -0 -0 -2 -0 2 2 1 -1 3 -1 0 -1 -0 -2 -1 1 -0 2 -0 -5 -2 -0 1 -1 1 6 0 3 -1 -1
-1 -1 -1 -0 -1 -1 -2 -2 -3 -3 -3 -5 -4 -4 -2 -0 -0 2 -4 0 -4 -1 4 3 -2 -0 -1 -2 1 1 -4 -1 1 -0 1 2 5 -1 3 -4 4 2 -1 3 5 -3 0
1 1 -0 -1 -2 -2 -1 -2 -2 -3 0 -3 -6 -3 -2 -1 -2 1 -2 5 -0 -1 -0 2 -1 1 1 0 0 3 -7 1 1 -0 -2 -3 0 -3 -4 1 -1 1 6 6 7 -3 -0
1 -0 -2 -1 -1 -2 -2 -2 -2 -4 -4 -2 -1 -5 0 -1 -3 -1 3 -0 1 -0 -2 -1 1 -1 1 1 -1 -2 -0 -1 1 1 1 1 5 -3 -6 -0 1 4 -0 -7 -6 6 -7
-0 -1 1 -1 -1 -2 -1 -1 -2 -1 -2 -3 -3 -5 -3 -1 1 -0 -3 0 1 -3 -3 -1 4 1 0 -2 3 -6 -2 -2 1 3 1 2 2 -6 -12 -11 12 6 2 1 7 11 -8
-2 1 -2 -4 -4 1 0 1 1 -2 -1 -0 0 -2 -3 -0 -1 -1 2 3 -3 1 2 4 -4 -0 2 -0 -6 -9 -0 4 5 4 1 2 -6 5 6 -2 1 -0 7 10 12 -2 10
1 -0 0 -0 -4 -5 -1 -2 1 3 5 0 4 -2 -4 -2 -1 1 8 -5 3 0 8 0 -3 0 7 -3 2 2 2 9 6 1 3 -1 -11 -4 -14 -8 -2 -10 2 -4 -2 -1 -4
1 -2 -3 -3 -4 -2 -5 -1 -3 -3 -2 1 8 3 7 1 -7 0 -6 -2 -1 4 1 2 -0 2 -2 -2 1 -1 -1 -1 -2 1 2 9 0 3 -23 0 5 -1 -9 -1 9 2 -1
-1 -0 1 -0 4 1 5 2 -5 3 5 7 9 7 7 -9 1 1 -1 -2 -5 -1 -1 -2 3 2 -8 -0 2 -2 -2 -3 3 -5 12 -1 7 13 -18 10 4 -16 1 -1 -0 0 2
1 0 0 -2 -1 -3 -3 -3 -3 -7 2 10 7 12 5 -5 3 9 2 -4 -0 0 -9 -2 -2 1 11 2 2 2 -8 -11 -9 -4 -1 0 18 3 0 1 -1 4 -5 -2 3 0 2
-2 -1 -2 -2 -2 -1 0 -0 2 -1 -0 -4 10 -4 11 2 -9 7 5 4 -7 -10 -7 -10 4 0 7 -3 7 -0 -3 -2 -5 -1 -2 -1 8 13 12 2 -2 1 0 3 -0 -5 -1
-3 -4 -2 -2 -1 -1 -1 -0 -3 0 3 1 10 -1 -2 -17 14 4 5 0 8 -1 3 -2 -2 -5 6 3 13 7 -4 3 -4 -3 -1 5 6 -5 0 5 2 2 7 6 9 2 3
-3 -2 -2 -2 -1 -2 -1 -2 -2 -2 -1 -3 4 6 -1 -10 2 6 23 2 -6 6 9 9 -3 -2 -5 2 14 8 -12 0 0 -5 3 9 9 -4 12 4 1 -6 3 7 1 -1 -2
-2 -2 -3 -3 -3 -3 -2 -1 -1 -2 -1 -2 -2 6 3 -6 -11 8 6 3 4 17 8 -4 -0 7 -2 18 -9 12 15 2 14 1 5 -1 -3 -3 4 3 5 3 3 3 -2 2 -0
Height
3160 3159 3158 3156 3154 3152 3151 3149 3148 3147 3147 3146 3146 3146 3146 3146 3147 3147 3147 3147 3147 3146 3145 3145 3144 3143 3143 3144 3144 3142 3141 3141 3142 3141 3140 3139 3138 3137 3136 3135 3135 3134 3133 3133 3132 3131 3129
3162 3160 3159 3158 3156 3155 3154 3153 3152 3151 3149 3149 3148 3148 3148 3148 3148 3148 3148 3148 3147 3147 3146 3145 3144 3144 3144 3145 3143 3142 3142 3142 3142 3141 3140 3139 3138 3137 3136 3135 3134 3133 3132 3131 3130 3129 3127
3164 3162 3161 3160 3159 3158 3157 3155 3154 3153 3152 3151 3150 3149 3149 3149 3149 3149 3148 3148 3148 3147 3146 3145 3144 3144 3144 3144 3142 3142 3142 3142 3141 3141 3140 3139 3138 3137 3136 3135 3133 3132 3131 3129 3128 3126 3124
3166 3164 3163 3162 3161 3160 3158 3157 3156 3155 3154 3153 3152 3151 3150 3150 3150 3149 3149 3148 3147 3146 3146 3145 3144 3144 3143 3143 3142 3142 3141 3141 3140 3140 3139 3138 3137 3136 3135 3134 3132 3131 3130 3127 3125 3123 3122
3167 3166 3165 3164 3163 3161 3160 3158 3157 3156 3155 3155 3154 3153 3152 3151 3150 3149 3148 3147 3146 3145 3144 3144 3144 3143 3143 3142 3141 3141 3141 3140 3139 3139 3138 3137 3136 3135 3134 3133 3131 3129 3128 3127 3125 3122 3120
3167 3166 3166 3165 3164 3163 3161 3159 3158 3157 3156 3155 3154 3153 3152 3151 3150 3149 3148 3147 3145 3145 3144 3143 3142 3144 3142 3142 3140 3140 3139 3139 3138 3137 3137 3136 3134 3133 3133 3131 3130 3128 3127 3125 3123 3122 3117
3168 3167 3166 3165 3164 3163 3162 3161 3159 3158 3157 3155 3154 3153 3152 3151 3149 3148 3147 3146 3147 3146 3143 3142 3141 3140 3139 3140 3139 3139 3138 3137 3136 3136 3135 3133 3133 3131 3131 3129 3128 3126 3124 3122 3120 3117 3114
3168 3167 3166 3165 3164 3163 3162 3161 3159 3158 3157 3155 3154 3152 3151 3150 3148 3147 3145 3144 3143 3143 3141 3139 3137 3137 3137 3137 3137 3136 3137 3136 3135 3133 3132 3131 3129 3129 3128 3127 3126 3123 3121 3119 3116 3115 3110
3167 3167 3166 3165 3164 3162 3161 3160 3159 3157 3156 3155 3154 3152 3151 3149 3148 3146 3144 3143 3141 3140 3138 3136 3134 3134 3134 3136 3135 3135 3135 3134 3132 3131 3130 3128 3128 3126 3126 3124 3123 3120 3117 3115 3114 3110 3109
3166 3166 3165 3164 3163 3162 3161 3160 3158 3157 3156 3154 3153 3152 3150 3148 3149 3145 3144 3142 3140 3138 3135 3135 3134 3134 3135 3134 3134 3133 3132 3133 3131 3129 3128 3126 3125 3124 3123 3121 3119 3117 3115 3113 3110 3107 3103
3163 3163 3162 3162 3161 3160 3159 3158 3157 3156 3155 3153 3152 3150 3149 3148 3146 3145 3144 3140 3139 3138 3137 3136 3134 3134 3133 3135 3134 3132 3131 3129 3128 3126 3127 3125 3123 3121 3119 3118 3116 3115 3112 3110 3106 3102 3099
3161 3160 3159 3159 3158 3157 3156 3156 3155 3153 3152 3151 3150 3149 3147 3146 3144 3143 3141 3139 3138 3139 3134 3133 3132 3132 3133 3132 3131 3128 3127 3126 3125 3122 3121 3120 3119 3117 3116 3114 3112 3111 3109 3106 3100 3099 3097
3158 3157 3157 3156 3155 3154 3153 3152 3151 3150 3149 3148 3147 3146 3145 3144 3143 3141 3139 3139 3138 3134 3134 3133 3131 3130 3129 3128 3126 3124 3123 3123 3123 3120 3117 3115 3114 3112 3112 3111 3109 3108 3106 3104 3100 3098 3092
3155 3154 3153 3152 3152 3151 3149 3149 3147 3146 3145 3144 3143 3143 3142 3141 3139 3138 3138 3138 3136 3132 3131 3130 3129 3128 3126 3124 3122 3121 3120 3119 3118 3116 3113 3111 3108 3109 3108 3108 3107 3104 3105 3105 3101 3095 3087
3150 3150 3149 3148 3147 3146 3145 3144 3143 3141 3140 3140 3139 3139 3138 3136 3135 3134 3135 3134 3132 3130 3129 3127 3126 3123 3122 3121 3121 3118 3115 3114 3113 3113 3113 3109 3104 3104 3104 3103 3103 3099 3099 3099 3095 3091 3086
3145 3144 3144 3143 3142 3141 3140 3138 3137 3136 3134 3134 3133 3134 3133 3132 3131 3130 3130 3128 3128 3127 3126 3124 3123 3122 3120 3118 3117 3115 3112 3111 3109 3109 3109 3106 3101 3098 3098 3098 3097 3096 3095 3093 3093 3090 3083
3139 3139 3138 3137 3136 3135 3134 3132 3131 3130 3129 3127 3127 3127 3127 3126 3125 3124 3122 3121 3121 3121 3121 3120 3118 3116 3116 3114 3112 3111 3108 3108 3105 3104 3104 3102 3100 3094 3092 3091 3091 3090 3087 3087 3086 3084 3078
3133 3132 3131 3130 3129 3128 3127 3126 3124 3123 3123 3121 3120 3121 3120 3120 3121 3118 3116 3115 3115 3114 3114 3113 3111 3110 3108 3108 3105 3104 3102 3103 3100 3100 3098 3097 3094 3087 3085 3083 3082 3080 3078 3079 3077 3075 3072
3126 3125 3124 3123 3122 3121 3120 3119 3118 3116 3115 3115 3114 3113 3114 3113 3112 3111 3110 3109 3108 3107 3107 3105 3104 3103 3103 3103 3102 3097 3096 3095 3095 3093 3091 3089 3085 3082 3078 3077 3074 3071 3072 3072 3071 3068 3060
3118 3118 3117 3116 3115 3114 3113 3113 3111 3110 3108 3108 3107 3105 3106 3106 3105 3102 3102 3102 3101 3100 3099 3099 3097 3097 3096 3094 3095 3089 3088 3088 3086 3085 3084 3083 3078 3078 3072 3069 3071 3066 3064 3064 3063 3058 3053
3112 3111 3109 3107 3106 3106 3105 3105 3105 3104 3103 3103 3101 3098 3097 3099 3098 3097 3096 3095 3094 3095 3093 3092 3089 3089 3089 3086 3085 3083 3082 3080 3078 3076 3074 3074 3067 3067 3062 3062 3061 3055 3054 3055 3051 3046 3043
3103 3102 3101 3100 3098 3098 3097 3095 3095 3097 3096 3095 3095 3093 3090 3088 3090 3090 3088 3085 3086 3086 3085 3082 3081 3082 3081 3078 3079 3074 3074 3073 3071 3068 3066 3063 3056 3057 3047 3051 3049 3040 3043 3041 3038 3034 3031
3094 3092 3091 3090 3089 3089 3089 3088 3087 3088 3088 3086 3085 3084 3081 3077 3078 3079 3076 3076 3076 3077 3076 3074 3074 3073 3072 3071 3068 3066 3064 3061 3060 3058 3057 3054 3052 3050 3039 3043 3040 3029 3026 3025 3026 3023 3022
3083 3082 3081 3081 3079 3080 3078 3078 3079 3079 3080 3078 3078 3073 3071 3066 3066 3066 3065 3067 3068 3068 3066 3066 3065 3063 3063 3061 3058 3054 3053 3050 3048 3044 3046 3042 3042 3042 3034 3036 3030 3018 3018 3018 3017 3016 3012
3071 3070 3069 3068 3068 3067 3068 3067 3067 3068 3068 3068 3066 3066 3061 3054 3055 3055 3056 3057 3057 3058 3056 3056 3056 3056 3054 3052 3049 3043 3040 3038 3033 3032 3032 3033 3034 3031 3029 3024 3018 3011 3011 3011 3009 3007 3005
3063 3061 3059 3057 3055 3054 3054 3053 3053 3053 3054 3054 3055 3050 3050 3047 3040 3046 3045 3045 3045 3044 3043 3042 3046 3046 3045 3044 3041 3035 3032 3030 3027 3023 3022 3024 3023 3022 3018 3014 3009 3001 3001 3001 2999 2996 2997
3059 3057 3054 3051 3049 3047 3045 3042 3042 3041 3040 3040 3042 3039 3036 3033 3031 3037 3036 3033 3035 3035 3031 3033 3034 3033 3035 3035 3031 3025 3024 3022 3019 3016 3016 3015 3013 3009 3006 3002 2997 2995 2994 2994 2994 2996 2991
3055 3052 3049 3047 3044 3041 3038 3036 3034 3032 3030 3027 3028 3030 3026 3019 3014 3020 3025 3023 3026 3026 3025 3024 3025 3022 3024 3021 3018 3013 3013 3010 3007 3007 3006 3005 3003 2999 2997 2995 2992 2990 2989 2991 2989 2987 2987
3050 3047 3044 3042 3039 3036 3033 3030 3027 3025 3023 3019 3018 3022 3017 3010 3003 3008 3007 3010 3013 3016 3015 3014 3014 3014 3015 3009 3008 3005 3000 3000 2998 2997 2998 2999 2996 2994 2993 2987 2984 2983 2983 2983 2983 2982 2981